When you browse on this site, cookies collect data to enhance your experience and personalize the content and advertising you see.
Visit our Privacy Policy to learn more. By continuing to use the site, you agree to this use of cookies and data.
  • In Hungary
  • List of Countries
  • For 7 days
  • Water Temperature
  • Satellite Maps
  • Weather Map
  • News
  • Weather Widgets
  • user-avatar
    Login

    Hourly Weather Cangas

    Today, 25 June, Tuesday

    Time Temperature Precipitation Wind Pressure Humidity
    00:00 +14°C° 0 mm 2 mps 755 mmHg 95%
    01:00 +14°C° 0 mm 2 mps 755 mmHg 95%
    02:00 +14°C° 0 mm 2 mps 755 mmHg 95%
    03:00 +14°C° 0 mm 2 mps 755 mmHg 94%
    04:00 +15°C° 0 mm 2 mps 755 mmHg 93%
    05:00 +15°C° 0 mm 2 mps 755 mmHg 91%
    06:00 +19°C° 0 mm 1 mps 755 mmHg 79%
    07:00 +22°C° 0 mm 1 mps 755 mmHg 67%
    08:00 +24°C° 0 mm 1 mps 755 mmHg 55%
    09:00 +25°C° 0 mm 1 mps 755 mmHg 51%
    10:00 +26°C° 0 mm 1 mps 755 mmHg 46%
    11:00 +27°C° 0 mm 2 mps 756 mmHg 41%
    12:00 +27°C° 0 mm 2 mps 756 mmHg 42%
    13:00 +27°C° 0 mm 2 mps 756 mmHg 42%
    14:00 +27°C° 0 mm 2 mps 756 mmHg 43%
    15:00 +25°C° 0.1 mm 2 mps 755 mmHg 54%
    16:00 +23°C° 0.1 mm 1 mps 755 mmHg 65%
    17:00 +20°C° 0.1 mm 1 mps 755 mmHg 77%
    18:00 +19°C° 1.2 mm 1 mps 755 mmHg 83%
    19:00 +17°C° 1.2 mm 2 mps 755 mmHg 90%
    20:00 +16°C° 1.2 mm 2 mps 756 mmHg 96%
    21:00 +16°C° 1.2 mm 2 mps 755 mmHg 96%
    22:00 +16°C° 1.2 mm 2 mps 755 mmHg 96%
    23:00 +16°C° 1.2 mm 2 mps 755 mmHg 96%

    Tomorrow, 26 June, Wednesday

    Time Temperature Precipitation Wind Pressure Humidity
    00:00 +16°C° 0.6 mm 2 mps 755 mmHg 96%
    01:00 +16°C° 0.6 mm 2 mps 755 mmHg 96%
    02:00 +14°C° 0.6 mm 3 mps 754 mmHg 96%
    03:00 +16°C° 0.4 mm 2 mps 754 mmHg 96%
    04:00 +16°C° 0.4 mm 1 mps 754 mmHg 96%
    05:00 +16°C° 0.4 mm 1 mps 754 mmHg 96%
    06:00 +18°C° 0.4 mm 1 mps 754 mmHg 93%
    07:00 +17°C° 0.4 mm 0 mps 755 mmHg 91%
    08:00 +17°C° 0.4 mm 0 mps 755 mmHg 89%
    09:00 +21°C° 0 mm 1 mps 755 mmHg 80%
    10:00 +23°C° 0 mm 2 mps 755 mmHg 70%
    11:00 +25°C° 0 mm 3 mps 756 mmHg 61%
    12:00 +25°C° 0 mm 2 mps 756 mmHg 61%
    13:00 +25°C° 0 mm 2 mps 756 mmHg 61%
    14:00 +25°C° 0 mm 1 mps 756 mmHg 61%
    15:00 +25°C° 0 mm 1 mps 755 mmHg 63%
    16:00 +24°C° 0 mm 1 mps 755 mmHg 65%
    17:00 +24°C° 0 mm 1 mps 755 mmHg 67%
    18:00 +22°C° 0 mm 1 mps 755 mmHg 73%
    19:00 +21°C° 0 mm 1 mps 756 mmHg 79%
    20:00 +19°C° 0 mm 1 mps 756 mmHg 85%
    21:00 +19°C° 0 mm 1 mps 756 mmHg 87%
    22:00 +18°C° 0 mm 1 mps 756 mmHg 89%
    23:00 +18°C° 0 mm 1 mps 756 mmHg 92%

    Day after tomorrow, 27 June, Thursday

    Time Temperature Precipitation Wind Pressure Humidity
    00:00 +18°C° 0 mm 1 mps 756 mmHg 93%
    01:00 +18°C° 0 mm 1 mps 755 mmHg 94%
    02:00 +18°C° 0 mm 1 mps 755 mmHg 95%
    03:00 +18°C° 0 mm 1 mps 755 mmHg 94%
    04:00 +18°C° 0 mm 1 mps 755 mmHg 93%
    05:00 +16°C° 0 mm 0 mps 755 mmHg 92%
    06:00 +20°C° 0 mm 1 mps 755 mmHg 84%
    07:00 +22°C° 0 mm 1 mps 755 mmHg 76%
    08:00 +24°C° 0 mm 2 mps 755 mmHg 68%
    09:00 +24°C° 0 mm 2 mps 755 mmHg 66%
    10:00 +25°C° 0 mm 2 mps 755 mmHg 64%
    11:00 +25°C° 0 mm 2 mps 756 mmHg 62%
    12:00 +25°C° 0 mm 3 mps 756 mmHg 61%
    13:00 +25°C° 0 mm 3 mps 756 mmHg 60%
    14:00 +25°C° 0 mm 3 mps 756 mmHg 60%
    15:00 +24°C° 0 mm 3 mps 756 mmHg 62%
    16:00 +23°C° 0 mm 2 mps 756 mmHg 64%
    17:00 +23°C° 0 mm 2 mps 756 mmHg 66%
    18:00 +20°C° 0 mm 2 mps 756 mmHg 75%
    19:00 +19°C° 0 mm 1 mps 757 mmHg 85%
    20:00 +15°C° 0 mm 1 mps 757 mmHg 94%
    21:00 +15°C° 0 mm 1 mps 757 mmHg 93%
    22:00 +15°C° 0 mm 1 mps 757 mmHg 93%
    23:00 +14°C° 0 mm 1 mps 757 mmHg 92%

    28 June, Friday

    Time Temperature Precipitation Wind Pressure Humidity
    00:00 +14°C° 0 mm 1 mps 757 mmHg 91%
    01:00 +14°C° 0 mm 1 mps 757 mmHg 90%
    02:00 +14°C° 0 mm 1 mps 757 mmHg 89%
    03:00 +14°C° 0 mm 1 mps 757 mmHg 87%
    04:00 +14°C° 0 mm 1 mps 757 mmHg 86%
    05:00 +14°C° 0 mm 1 mps 756 mmHg 84%
    06:00 +19°C° 0 mm 1 mps 756 mmHg 74%
    07:00 +22°C° 0 mm 1 mps 756 mmHg 63%
    08:00 +25°C° 0 mm 1 mps 756 mmHg 52%
    09:00 +25°C° 0 mm 1 mps 757 mmHg 50%
    10:00 +26°C° 0 mm 2 mps 757 mmHg 48%
    11:00 +27°C° 0 mm 2 mps 757 mmHg 45%
    12:00 +27°C° 0 mm 2 mps 757 mmHg 46%
    13:00 +27°C° 0 mm 3 mps 756 mmHg 47%
    14:00 +27°C° 0 mm 3 mps 756 mmHg 48%
    15:00 +25°C° 0 mm 3 mps 756 mmHg 53%
    16:00 +24°C° 0 mm 3 mps 756 mmHg 57%
    17:00 +22°C° 0 mm 3 mps 756 mmHg 61%
    18:00 +20°C° 0 mm 3 mps 756 mmHg 72%
    19:00 +18°C° 0 mm 2 mps 757 mmHg 84%
    20:00 +15°C° 0 mm 2 mps 757 mmHg 95%
    21:00 +15°C° 0 mm 2 mps 757 mmHg 95%
    22:00 +15°C° 0 mm 2 mps 757 mmHg 96%
    23:00 +15°C° 0 mm 2 mps 756 mmHg 96%

    29 June, Saturday

    Time Temperature Precipitation Wind Pressure Humidity
    00:00 +14°C° 0 mm 2 mps 756 mmHg 96%
    01:00 +14°C° 0 mm 2 mps 756 mmHg 96%
    02:00 +14°C° 0 mm 2 mps 756 mmHg 96%
    03:00 +14°C° 0 mm 2 mps 756 mmHg 95%
    04:00 +15°C° 0 mm 2 mps 756 mmHg 94%
    05:00 +15°C° 0 mm 2 mps 756 mmHg 93%
    06:00 +17°C° 0 mm 2 mps 756 mmHg 83%
    07:00 +20°C° 0 mm 2 mps 757 mmHg 72%
    08:00 +24°C° 0 mm 2 mps 757 mmHg 61%
    09:00 +25°C° 0 mm 3 mps 757 mmHg 56%
    10:00 +26°C° 0 mm 3 mps 757 mmHg 51%
    11:00 +28°C° 0 mm 4 mps 756 mmHg 46%
    12:00 +27°C° 0 mm 4 mps 756 mmHg 48%
    13:00 +27°C° 0 mm 4 mps 756 mmHg 50%
    14:00 +26°C° 0 mm 5 mps 756 mmHg 51%
    15:00 +26°C° 0 mm 5 mps 756 mmHg 54%
    16:00 +25°C° 0 mm 4 mps 756 mmHg 57%
    17:00 +23°C° 0 mm 4 mps 756 mmHg 60%
    18:00 +21°C° 0 mm 4 mps 756 mmHg 68%
    19:00 +19°C° 0 mm 4 mps 757 mmHg 76%
    20:00 +17°C° 0 mm 4 mps 757 mmHg 84%
    21:00 +17°C° 0 mm 4 mps 757 mmHg 86%
    22:00 +15°C° 0 mm 4 mps 757 mmHg 88%
    23:00 +15°C° 0 mm 4 mps 757 mmHg 90%

    30 June, Sunday

    Time Temperature Precipitation Wind Pressure Humidity
    00:00 +15°C° 0 mm 4 mps 757 mmHg 91%
    01:00 +14°C° 0 mm 4 mps 756 mmHg 92%
    02:00 +14°C° 0 mm 4 mps 756 mmHg 93%
    03:00 +14°C° 0 mm 4 mps 756 mmHg 92%
    04:00 +14°C° 0 mm 5 mps 756 mmHg 91%
    05:00 +15°C° 0 mm 5 mps 756 mmHg 90%
    06:00 +17°C° 0 mm 5 mps 756 mmHg 82%
    07:00 +20°C° 0 mm 5 mps 756 mmHg 73%
    08:00 +23°C° 0 mm 5 mps 756 mmHg 65%
    09:00 +26°C° 0 mm 5 mps 756 mmHg 58%
    10:00 +29°C° 0 mm 5 mps 756 mmHg 52%
    11:00 +32°C° 0 mm 5 mps 756 mmHg 45%
    12:00 +33°C° 0 mm 5 mps 756 mmHg 44%
    13:00 +34°C° 0 mm 5 mps 756 mmHg 42%
    14:00 +34°C° 0 mm 5 mps 755 mmHg 41%
    15:00 +33°C° 0 mm 5 mps 755 mmHg 45%
    16:00 +32°C° 0 mm 6 mps 755 mmHg 49%
    17:00 +30°C° 0 mm 6 mps 755 mmHg 53%
    18:00 +27°C° 0.1 mm 6 mps 755 mmHg 63%
    19:00 +25°C° 0.1 mm 5 mps 755 mmHg 73%
    20:00 +21°C° 0.1 mm 5 mps 755 mmHg 83%
    21:00 +20°C° 0.3 mm 5 mps 755 mmHg 86%
    22:00 +19°C° 0.3 mm 5 mps 755 mmHg 89%
    23:00 +19°C° 0.3 mm 5 mps 755 mmHg 92%
    Show more